[[{"header":{"parameterUnit":"m.s-1","parameterCategory":1,"la1":30.2991,"la2":30.254,"lo1":-89.0895,"lo2":-89.0444,"dy":0.0017,"dx":0.0017,"nx":28,"ny":28,"refTime":"2024-02-12T03:00:00:Z","depth":0,"parameterNumber":2,"parameterNumberName":"U-component_of_WINDS"},"data":[0,0,0,0,0,0,0,0,0,0,0,0,0,0,0,0,0,0,0,0,0,0,0,0,0,0,0,0,0,0,0,0,0,0,0,0,0,0,0,0,0,0,0,0,0,0,0,0,0,0,0,0,0,0,0,0,0,0,4.7257,4.7258,0,4.7376,4.7377,4.7379,4.7358,4.7356,4.7354,4.7352,4.7473,4.7478,4.7484,0,0,0,0,0,0,0,0,0,0,0,0,0,4.7011,4.7016,4.7257,4.7258,4.726,4.7376,4.7377,4.7379,4.7359,4.7356,4.7354,4.7351,4.7472,4.7478,4.7484,0,0,0,0,0,0,0,0,0,0,0,0,0,4.7123,4.7017,4.7256,4.7264,4.7265,4.7375,4.7377,4.7379,4.7359,4.7356,4.7353,4.735,4.747,4.7477,4.7485,4.7595,0,0,4.7509,4.7512,0,0,0,0,0,0,0,0,4.7117,4.7132,4.7261,4.7263,4.7265,4.7349,4.7335,4.7452,4.736,4.7324,4.7352,4.7349,4.7435,4.7445,4.7474,4.7601,4.7606,4.7509,4.7514,4.7517,4.7519,0,0,0,0,0,0,0,4.7109,4.7127,4.7304,4.7263,4.7266,4.7261,4.7273,4.7357,4.7395,4.7327,4.7325,4.734,4.7435,4.7467,4.7477,4.7608,4.7509,4.7516,4.7521,4.7524,4.7832,4.7835,0,0,0,0,0,0,4.7099,4.712,4.73,4.7307,4.7182,4.7268,4.7282,4.7325,4.7394,4.7402,4.7342,4.7338,4.7455,4.7468,4.7481,4.7615,4.7517,4.7524,4.7529,4.7828,4.7833,4.7836,0,0,0,0,0,0,4.7094,4.7115,4.7295,4.7214,4.7236,4.7275,4.7325,4.7329,4.7361,4.7406,4.7413,4.7368,4.7453,4.747,4.7567,4.7619,4.7528,4.7535,4.7824,4.783,4.7835,4.7884,0,0,0,0,0,0,4.7087,4.7114,4.7156,4.7215,4.7241,4.7379,4.7328,4.7334,4.7375,4.7371,4.7432,4.7439,4.7452,4.7556,4.7575,4.7628,4.7541,4.782,4.7827,4.7833,4.7878,4.789,4.7901,0,0,0,0,0,4.7078,4.7164,4.7158,4.718,4.7294,4.7382,4.7397,4.7411,4.7379,4.7422,4.7451,4.7437,4.761,4.7566,4.7587,4.7643,4.7816,4.7825,4.7832,4.7872,4.7888,4.7901,0,0,0,0,0,0,4.7109,4.7172,4.7166,4.7273,4.7323,4.7379,4.7433,4.7426,4.7486,4.7479,4.7494,4.7508,4.7607,4.7635,4.7584,4.7754,4.7709,4.7722,4.7732,4.7747,4.7758,4.7749,4.7547,0,0,0,0,0,4.7129,4.7196,4.7247,4.7337,4.7362,4.7393,4.7432,4.7439,4.7491,4.7511,4.7547,4.7598,4.7664,4.7707,4.777,4.7882,4.7895,4.7931,4.7943,4.7952,4.7963,4.8025,4.8042,4.7863,4.7863,4.7862,0,0,4.717,4.7212,4.7253,4.7344,4.7383,4.7452,4.7411,4.7485,4.7536,4.7522,4.7616,4.7645,4.7702,4.7808,4.7856,4.7834,4.8015,4.7962,4.7969,4.7975,4.8035,4.8052,4.8067,4.7868,4.7867,4.7866,0,0,4.7279,4.7318,4.7397,4.7438,4.7498,4.7519,4.7538,4.7596,4.7614,4.7709,4.77,4.7762,4.7875,4.7916,4.7952,4.808,4.8069,4.81,4.816,4.822,4.8234,4.8247,4.8293,4.8309,4.811,4.8111,4.8111,0,4.7322,4.7425,4.7439,4.7515,4.7556,4.7547,4.7628,4.7667,4.7744,4.7772,4.7747,4.789,4.7928,4.8044,4.8075,4.8104,4.8127,4.8092,4.8231,4.8244,4.8256,4.83,4.8317,4.8114,4.8113,4.8113,4.8113,0,4.7475,4.7547,4.7605,4.7681,4.7728,4.7806,4.7832,4.7878,4.7881,4.7904,4.8002,4.8047,4.812,4.8148,4.8151,4.8264,4.8249,4.8228,4.8182,4.8276,4.8318,4.8334,4.8119,4.8117,4.8116,4.8116,0,0,4.7606,4.769,4.7711,4.7746,4.7812,4.7868,4.7946,4.8018,4.8058,4.8112,4.8178,4.8275,4.8256,4.8297,4.8305,4.8358,4.8457,4.8331,4.8332,4.8353,4.8585,4.8601,4.862,4.8451,4.8454,4.8457,4.858,0,4.7722,4.786,4.7876,4.7999,4.8066,4.806,4.8128,4.8176,4.8201,4.8261,4.8288,4.8357,4.8326,4.8351,4.8404,4.8434,4.8504,4.8425,4.8513,4.8515,4.8498,4.8641,4.8658,4.8772,4.8597,4.8599,4.8601,0,4.7875,4.7935,4.8065,4.8123,4.8152,4.8213,4.8281,4.8339,4.8394,4.8408,4.8455,4.8456,4.8537,4.8489,4.8602,4.8548,4.8585,4.8605,4.861,4.8618,4.8564,4.8653,4.8809,4.8826,4.8627,4.8625,4.8623,0,4.7958,4.8071,4.8163,4.8193,4.8264,4.8307,4.8338,4.839,4.8433,4.8492,4.852,4.8588,4.8625,4.8678,4.8698,4.8661,4.881,4.8763,4.8824,4.8823,4.8855,4.8852,4.9018,4.8879,4.8879,4.8878,4.8878,0,4.8086,4.8165,4.8202,4.8259,4.8348,4.8366,4.8454,4.8484,4.853,4.8593,4.8592,4.8651,4.8674,4.8737,4.8753,4.8844,4.8861,4.8875,4.8878,4.8875,4.8873,4.8899,4.8891,4.8883,4.8882,4.8881,4.888,0,4.8193,4.822,4.8321,4.838,4.8397,4.846,4.8511,4.8566,4.859,4.867,4.8689,4.8728,4.8802,4.8827,4.8917,4.8928,4.9034,4.903,4.9015,4.9016,4.9075,4.9069,4.9263,4.9289,4.9133,4.9134,4.9135,0,4.8272,4.8334,4.84,4.8442,4.8475,4.8543,4.8587,4.8607,4.8653,4.8721,4.8768,4.8842,4.8902,4.9021,4.9057,4.9125,4.9124,4.9187,4.9134,4.9129,4.9125,4.9121,4.9127,4.9196,4.9198,4.9199,4.92,0,4.841,4.8421,4.8485,4.8554,4.8606,4.8661,4.8714,4.8749,4.8777,4.8829,4.8905,4.8952,4.9044,4.9117,4.9188,4.922,4.9216,4.9217,4.9235,4.9232,4.9221,4.9228,4.9042,4.9212,4.9211,4.921,4.921,4.9209,4.8506,4.8561,4.8616,4.8687,4.873,4.878,4.8835,4.8867,4.8931,4.9007,4.9016,4.9098,4.9153,4.9247,4.9283,4.9348,4.933,4.9356,4.9362,4.9368,4.9373,4.9211,4.9361,4.9361,4.936,4.936,4.936,0,4.8645,4.868,4.8745,4.882,4.8876,4.8868,4.8927,4.8974,4.9046,4.9098,4.9158,4.9246,4.9317,4.9359,4.9431,4.9475,4.9475,4.9493,4.949,4.9498,4.9384,4.9362,4.9492,4.9492,4.9492,4.9492,4.9492,4.9492,4.8723,4.8815,4.8833,4.8947,4.8982,4.9063,4.9097,4.9144,4.9185,4.9283,4.9343,4.937,4.9418,4.9494,4.956,4.957,4.9597,4.9617,4.9626,4.9519,4.9505,4.9492,4.9471,4.9623,4.9623,4.9734,4.9735,4.9735]},{"header":{"parameterUnit":"m.s-1","parameterCategory":1,"la1":30.2991,"la2":30.254,"lo1":-89.0895,"lo2":-89.0444,"dy":0.0017,"dx":0.0017,"nx":28,"ny":28,"refTime":"2024-02-12T03:00:00:Z","depth":0,"parameterNumber":3,"parameterNumberName":"V-component_of_WINDS"},"data":[0,0,0,0,0,0,0,0,0,0,0,0,0,0,0,0,0,0,0,0,0,0,0,0,0,0,0,0,0,0,0,0,0,0,0,0,0,0,0,0,0,0,0,0,0,0,0,0,0,0,0,0,0,0,0,0,0,0,-6.2664,-6.2665,0,-6.2817,-6.2819,-6.2821,-6.2786,-6.2783,-6.278,-6.2777,-6.2933,-6.2939,-6.2946,0,0,0,0,0,0,0,0,0,0,0,0,0,-6.2338,-6.2344,-6.2663,-6.2665,-6.2667,-6.2817,-6.2819,-6.2821,-6.2786,-6.2783,-6.2779,-6.2776,-6.293,-6.2938,-6.2947,0,0,0,0,0,0,0,0,0,0,0,0,0,-6.2484,-6.2346,-6.2663,-6.2668,-6.267,-6.2817,-6.2819,-6.2822,-6.2787,-6.2782,-6.2778,-6.2774,-6.2928,-6.2938,-6.2948,-6.3099,0,0,-6.2979,-6.2984,0,0,0,0,0,0,0,0,-6.2476,-6.2496,-6.2665,-6.2668,-6.267,-6.2778,-6.2761,-6.2915,-6.2788,-6.2742,-6.2777,-6.2772,-6.2885,-6.2898,-6.2937,-6.3106,-6.3113,-6.298,-6.2986,-6.2991,-6.2994,0,0,0,0,0,0,0,-6.2466,-6.2489,-6.2724,-6.2668,-6.2671,-6.2662,-6.2678,-6.279,-6.2836,-6.2746,-6.2744,-6.2763,-6.2885,-6.2927,-6.294,-6.3115,-6.298,-6.2989,-6.2995,-6.2999,-6.3417,-6.3421,0,0,0,0,0,0,-6.2454,-6.2481,-6.2719,-6.2729,-6.256,-6.2671,-6.2689,-6.2748,-6.2835,-6.2844,-6.2766,-6.276,-6.2911,-6.2928,-6.2945,-6.3128,-6.2991,-6.3,-6.3006,-6.3412,-6.3418,-6.3423,0,0,0,0,0,0,-6.2447,-6.2475,-6.2713,-6.2604,-6.2634,-6.2681,-6.2748,-6.2753,-6.2795,-6.285,-6.2858,-6.28,-6.2908,-6.2931,-6.3061,-6.3133,-6.3005,-6.3014,-6.3406,-6.3414,-6.342,-6.3495,0,0,0,0,0,0,-6.2438,-6.2473,-6.2531,-6.2606,-6.264,-6.2827,-6.2752,-6.2759,-6.2813,-6.2807,-6.2884,-6.2893,-6.2907,-6.3046,-6.3071,-6.3145,-6.3022,-6.34,-6.3409,-6.3418,-6.3486,-6.3504,-6.3519,0,0,0,0,0,-6.2426,-6.2546,-6.2534,-6.2563,-6.2714,-6.2831,-6.2851,-6.2865,-6.2819,-6.2877,-6.2913,-6.289,-6.3121,-6.306,-6.3088,-6.3166,-6.3395,-6.3407,-6.3417,-6.3479,-6.35,-6.3519,0,0,0,0,0,0,-6.2477,-6.2555,-6.2544,-6.2691,-6.2755,-6.2825,-6.29,-6.2887,-6.2965,-6.2956,-6.2969,-6.2987,-6.312,-6.3156,-6.3086,-6.3316,-6.3251,-6.3269,-6.3288,-6.3309,-6.3325,-6.3314,-6.3031,0,0,0,0,0,-6.2506,-6.2595,-6.2658,-6.2782,-6.2815,-6.2852,-6.2904,-6.2909,-6.2976,-6.3002,-6.3047,-6.3112,-6.3199,-6.3256,-6.3339,-6.3491,-6.3507,-6.3558,-6.3575,-6.3588,-6.3603,-6.3686,-6.3709,-6.3459,-6.3459,-6.3459,0,0,-6.2565,-6.2619,-6.2675,-6.2794,-6.2844,-6.2936,-6.2875,-6.2975,-6.3043,-6.3017,-6.3143,-6.3179,-6.3252,-6.3394,-6.3459,-6.3427,-6.3675,-6.3602,-6.3612,-6.362,-6.3699,-6.3723,-6.3744,-6.3467,-6.3465,-6.3464,0,0,-6.2721,-6.2771,-6.288,-6.2932,-6.3009,-6.3032,-6.3059,-6.3131,-6.3154,-6.3281,-6.3264,-6.3345,-6.3494,-6.3547,-6.3594,-6.377,-6.3752,-6.3797,-6.3882,-6.3963,-6.3983,-6.4,-6.4063,-6.4085,-6.3811,-6.3811,-6.3811,0,-6.2786,-6.2924,-6.2937,-6.3039,-6.3092,-6.3074,-6.3184,-6.3233,-6.3333,-6.337,-6.3334,-6.3522,-6.3569,-6.3723,-6.3767,-6.3805,-6.3835,-6.3788,-6.3979,-6.3996,-6.4013,-6.4073,-6.4097,-6.3816,-6.3816,-6.3815,-6.3815,0,-6.2999,-6.3096,-6.3174,-6.3272,-6.3334,-6.3439,-6.3468,-6.3529,-6.3529,-6.3557,-6.3686,-6.3743,-6.3838,-6.3875,-6.3875,-6.4029,-6.4007,-6.3975,-6.391,-6.4041,-6.4098,-6.4121,-6.3823,-6.3822,-6.382,-6.3819,0,0,-6.3192,-6.3296,-6.3325,-6.3369,-6.3452,-6.3527,-6.3631,-6.3725,-6.3776,-6.3846,-6.3934,-6.4061,-6.4032,-6.4085,-6.4091,-6.4162,-6.4298,-6.4121,-6.4123,-6.4152,-6.4471,-6.4495,-6.4521,-6.4287,-6.4291,-6.4295,-6.4465,0,-6.3355,-6.354,-6.3555,-6.3721,-6.3811,-6.3795,-6.3885,-6.3946,-6.3975,-6.4054,-6.4085,-6.4176,-6.413,-6.4162,-6.4231,-6.4267,-6.4362,-6.4255,-6.4368,-6.4372,-6.4351,-6.4551,-6.4577,-6.4734,-6.4487,-6.4491,-6.4494,0,-6.357,-6.3647,-6.3823,-6.3894,-6.3932,-6.4014,-6.41,-6.4177,-6.4245,-6.4261,-6.432,-6.4317,-6.4424,-6.4356,-6.4503,-6.4429,-6.4477,-6.4501,-6.4507,-6.4519,-6.4441,-6.4567,-6.4785,-6.4809,-6.4529,-6.4526,-6.4523,0,-6.3693,-6.384,-6.3964,-6.4003,-6.4089,-6.4147,-6.4186,-6.425,-6.4305,-6.4381,-6.4416,-6.4503,-6.4551,-6.4618,-6.4638,-6.4586,-6.4785,-6.4717,-6.48,-6.48,-6.4843,-6.484,-6.5071,-6.4874,-6.4873,-6.4873,-6.4872,0,-6.3874,-6.3982,-6.4021,-6.4097,-6.4218,-6.4234,-6.4352,-6.4387,-6.4445,-6.4527,-6.4519,-6.4596,-6.4618,-6.4699,-6.4716,-6.4835,-6.4857,-6.4872,-6.4875,-6.4873,-6.4871,-6.4904,-6.4894,-6.4879,-6.4878,-6.4876,-6.4875,0,-6.4031,-6.4062,-6.4196,-6.4267,-6.4288,-6.4373,-6.4434,-6.4507,-6.4534,-6.4639,-6.4664,-6.4707,-6.4802,-6.4829,-6.4943,-6.4954,-6.5095,-6.5088,-6.5072,-6.5072,-6.5153,-6.5145,-6.5414,-6.545,-6.5228,-6.523,-6.5232,0,-6.4145,-6.4228,-6.4308,-6.4363,-6.4404,-6.4493,-6.4549,-6.4568,-6.4627,-6.4712,-6.4775,-6.4869,-6.4946,-6.5099,-6.5139,-6.5227,-6.5221,-6.531,-6.5234,-6.523,-6.5223,-6.5218,-6.5226,-6.5324,-6.5326,-6.5328,-6.5329,0,-6.4343,-6.4354,-6.4436,-6.4524,-6.4592,-6.4662,-6.4729,-6.4774,-6.4802,-6.4869,-6.4967,-6.5026,-6.5143,-6.5237,-6.5325,-6.5364,-6.5352,-6.5353,-6.5377,-6.5375,-6.5363,-6.5371,-6.5111,-6.5346,-6.5345,-6.5343,-6.5343,-6.5342,-6.4483,-6.4555,-6.4623,-6.4715,-6.4768,-6.4831,-6.4903,-6.494,-6.5022,-6.5119,-6.5125,-6.5231,-6.5297,-6.5415,-6.5459,-6.5541,-6.5515,-6.555,-6.5558,-6.5567,-6.5574,-6.535,-6.5557,-6.5557,-6.5556,-6.5556,-6.5556,0,-6.468,-6.4723,-6.4808,-6.4902,-6.4974,-6.4957,-6.503,-6.5092,-6.5185,-6.5248,-6.5324,-6.5436,-6.5527,-6.5575,-6.5665,-6.5722,-6.5719,-6.5745,-6.5741,-6.5751,-6.5592,-6.5562,-6.5747,-6.5747,-6.5747,-6.5747,-6.5747,-6.5746,-6.4792,-6.4915,-6.4934,-6.5082,-6.5124,-6.5229,-6.5272,-6.533,-6.538,-6.5506,-6.5582,-6.5613,-6.567,-6.5765,-6.5847,-6.5859,-6.5892,-6.5922,-6.5931,-6.5781,-6.5762,-6.5743,-6.5715,-6.5929,-6.5929,-6.6082,-6.6084,-6.6085]}]]